Time,TemperatureF,DewpointF,PressureIn,WindDirection,WindDirectionDegrees,WindSpeedMPH,WindSpeedGustMPH,Humidity,HourlyPrecipIn,Conditions,Clouds,dailyrainin,SoftwareType,DateUTC
2013-06-28 00:02:00,76.8,60.9,29.87,NNW,337,5.3,-999.0,58,-99.99,,,0.00,Acu-Link.com,2013-06-28 05:02:00,
2013-06-28 00:18:00,76.5,60.1,29.87,WNW,292,3.7,-999.0,57,-99.99,,,0.00,Acu-Link.com,2013-06-28 05:18:00,
2013-06-28 00:33:00,75.6,60.2,29.88,NNW,337,3.2,-999.0,59,-99.99,,,0.00,Acu-Link.com,2013-06-28 05:33:00,
2013-06-28 00:48:00,75.0,59.2,29.88,NW,315,2.7,-999.0,58,-99.99,,,0.00,Acu-Link.com,2013-06-28 05:48:00,
2013-06-28 01:04:00,74.1,58.8,29.88,NNW,337,4.7,-999.0,59,-99.99,,,0.00,Acu-Link.com,2013-06-28 06:04:00,
2013-06-28 01:19:00,73.0,59.2,29.89,West,270,5.8,-999.0,62,-99.99,,,0.00,Acu-Link.com,2013-06-28 06:19:00,
2013-06-28 01:34:00,72.3,59.0,29.89,West,270,3.2,-999.0,63,-99.99,,,0.00,Acu-Link.com,2013-06-28 06:34:00,
2013-06-28 01:49:00,72.1,58.3,29.89,West,270,4.2,-999.0,62,-99.99,,,0.00,Acu-Link.com,2013-06-28 06:49:00,
2013-06-28 02:04:00,72.0,58.7,29.90,West,270,4.2,-999.0,63,-99.99,,,0.00,Acu-Link.com,2013-06-28 07:04:00,
2013-06-28 02:20:00,71.2,58.4,29.90,WNW,292,4.7,-999.0,64,-99.99,,,0.00,Acu-Link.com,2013-06-28 07:20:00,
2013-06-28 02:35:00,70.7,57.9,29.90,WNW,292,4.2,-999.0,64,-99.99,,,0.00,Acu-Link.com,2013-06-28 07:35:00,
2013-06-28 02:50:00,70.2,57.9,29.90,WNW,292,4.7,-999.0,65,-99.99,,,0.00,Acu-Link.com,2013-06-28 07:50:00,
2013-06-28 03:05:00,69.8,57.5,29.90,WNW,292,4.2,-999.0,65,-99.99,,,0.00,Acu-Link.com,2013-06-28 08:05:00,
2013-06-28 03:20:00,69.8,57.5,29.89,WNW,292,7.8,-999.0,65,-99.99,,,0.00,Acu-Link.com,2013-06-28 08:20:00,
2013-06-28 03:35:00,69.6,57.3,29.90,NW,315,4.7,-999.0,65,-99.99,,,0.00,Acu-Link.com,2013-06-28 08:35:00,
2013-06-28 03:51:00,69.8,57.1,29.89,NNW,337,5.8,-999.0,64,-99.99,,,0.00,Acu-Link.com,2013-06-28 08:51:00,
2013-06-28 04:06:00,69.8,56.6,29.89,NNE,22,5.8,-999.0,63,-99.99,,,0.00,Acu-Link.com,2013-06-28 09:06:00,
2013-06-28 04:21:00,68.9,56.2,29.89,NW,315,5.3,-999.0,64,-99.99,,,0.00,Acu-Link.com,2013-06-28 09:21:00,
2013-06-28 04:36:00,68.0,56.6,29.89,West,270,6.8,-999.0,67,-99.99,,,0.00,Acu-Link.com,2013-06-28 09:36:00,
2013-06-28 04:52:00,66.7,56.6,29.89,West,270,2.7,-999.0,70,-99.99,,,0.00,Acu-Link.com,2013-06-28 09:52:00,
2013-06-28 05:07:00,66.4,56.3,29.89,WNW,292,5.3,-999.0,70,-99.99,,,0.00,Acu-Link.com,2013-06-28 10:07:00,
2013-06-28 05:22:00,66.6,56.5,29.89,NW,315,3.2,-999.0,70,-99.99,,,0.00,Acu-Link.com,2013-06-28 10:22:00,
2013-06-28 05:37:00,66.2,56.1,29.89,West,270,4.2,-999.0,70,-99.99,,,0.00,Acu-Link.com,2013-06-28 10:37:00,
2013-06-28 05:52:00,65.8,56.1,29.89,NW,315,6.8,-999.0,71,-99.99,,,0.00,Acu-Link.com,2013-06-28 10:52:00,
2013-06-28 06:07:00,66.0,56.3,29.89,WNW,292,6.8,-999.0,71,-99.99,,,0.00,Acu-Link.com,2013-06-28 11:07:00,
2013-06-28 06:23:00,66.6,56.5,29.89,NW,315,6.8,-999.0,70,-99.99,,,0.00,Acu-Link.com,2013-06-28 11:23:00,
2013-06-28 06:38:00,66.9,56.8,29.89,WNW,292,8.3,-999.0,70,-99.99,,,0.00,Acu-Link.com,2013-06-28 11:38:00,
2013-06-28 06:53:00,68.0,57.0,29.90,NW,315,4.7,-999.0,68,-99.99,,,0.00,Acu-Link.com,2013-06-28 11:53:00,
2013-06-28 07:09:00,69.3,57.4,29.90,NNW,337,4.7,-999.0,66,-99.99,,,0.00,Acu-Link.com,2013-06-28 12:09:00,
2013-06-28 07:24:00,70.3,57.5,29.90,WNW,292,7.3,-999.0,64,-99.99,,,0.00,Acu-Link.com,2013-06-28 12:24:00,
2013-06-28 07:39:00,71.1,57.9,29.89,West,270,6.3,-999.0,63,-99.99,,,0.00,Acu-Link.com,2013-06-28 12:39:00,
2013-06-28 07:54:00,71.2,57.5,29.90,WNW,292,6.3,-999.0,62,-99.99,,,0.00,Acu-Link.com,2013-06-28 12:54:00,
2013-06-28 08:09:00,72.3,58.1,29.90,WNW,292,7.8,-999.0,61,-99.99,,,0.00,Acu-Link.com,2013-06-28 13:09:00,
2013-06-28 08:24:00,73.0,58.3,29.89,NNW,337,7.3,-999.0,60,-99.99,,,0.00,Acu-Link.com,2013-06-28 13:24:00,
2013-06-28 08:40:00,74.3,59.0,29.90,West,270,5.3,-999.0,59,-99.99,,,0.00,Acu-Link.com,2013-06-28 13:40:00,
2013-06-28 08:55:00,75.0,58.2,29.89,NW,315,9.9,-999.0,56,-99.99,,,0.00,Acu-Link.com,2013-06-28 13:55:00,
2013-06-28 09:10:00,75.9,58.6,29.90,NW,315,6.8,-999.0,55,-99.99,,,0.00,Acu-Link.com,2013-06-28 14:10:00,
2013-06-28 09:25:00,77.2,59.2,29.89,West,270,10.4,-999.0,54,-99.99,,,0.00,Acu-Link.com,2013-06-28 14:25:00,
2013-06-28 09:40:00,76.8,58.4,29.89,NW,315,6.3,-999.0,53,-99.99,,,0.00,Acu-Link.com,2013-06-28 14:40:00,
2013-06-28 09:55:00,76.6,58.2,29.88,West,270,8.3,-999.0,53,-99.99,,,0.00,Acu-Link.com,2013-06-28 14:55:00,
2013-06-28 10:10:00,78.1,58.5,29.88,WNW,292,11.4,-999.0,51,-99.99,,,0.00,Acu-Link.com,2013-06-28 15:10:00,
2013-06-28 10:25:00,77.7,58.1,29.88,West,270,17.1,-999.0,51,-99.99,,,0.00,Acu-Link.com,2013-06-28 15:25:00,
2013-06-28 10:40:00,77.7,58.7,29.88,West,270,18.6,-999.0,52,-99.99,,,0.00,Acu-Link.com,2013-06-28 15:40:00,
2013-06-28 10:55:00,78.8,58.6,29.88,West,270,20.2,-999.0,50,-99.99,,,0.00,Acu-Link.com,2013-06-28 15:55:00,
2013-06-28 11:10:00,79.5,59.2,29.87,NNW,337,11.4,-999.0,50,-99.99,,,0.00,Acu-Link.com,2013-06-28 16:10:00,
2013-06-28 11:25:00,79.7,58.3,29.87,WNW,292,19.1,-999.0,48,-99.99,,,0.00,Acu-Link.com,2013-06-28 16:25:00,
2013-06-28 11:40:00,80.2,58.7,29.87,North,0,8.3,-999.0,48,-99.99,,,0.00,Acu-Link.com,2013-06-28 16:40:00,
2013-06-28 11:55:00,80.1,55.6,29.87,WNW,292,23.3,-999.0,43,-99.99,,,0.00,Acu-Link.com,2013-06-28 16:55:00,
2013-06-28 12:10:00,81.9,55.9,29.88,West,270,12.5,-999.0,41,-99.99,,,0.00,Acu-Link.com,2013-06-28 17:10:00,
2013-06-28 12:26:00,80.6,55.4,29.87,NNW,337,16.1,-999.0,42,-99.99,,,0.00,Acu-Link.com,2013-06-28 17:26:00,
2013-06-28 12:41:00,80.6,56.0,29.87,WNW,292,18.6,-999.0,43,-99.99,,,0.00,Acu-Link.com,2013-06-28 17:41:00,
2013-06-28 12:56:00,81.5,56.8,29.87,NW,315,22.2,-999.0,43,-99.99,,,0.00,Acu-Link.com,2013-06-28 17:56:00,
2013-06-28 13:11:00,81.3,56.6,29.86,WNW,292,13.0,-999.0,43,-99.99,,,0.00,Acu-Link.com,2013-06-28 18:11:00,
2013-06-28 13:26:00,81.5,57.5,29.86,NNW,337,17.1,-999.0,44,-99.99,,,0.00,Acu-Link.com,2013-06-28 18:26:00,
2013-06-28 13:41:00,81.9,54.5,29.85,NW,315,29.4,-999.0,39,-99.99,,,0.00,Acu-Link.com,2013-06-28 18:41:00,
2013-06-28 13:56:00,82.2,54.8,29.84,NW,315,20.2,-999.0,39,-99.99,,,0.00,Acu-Link.com,2013-06-28 18:56:00,
2013-06-28 14:11:00,82.6,55.1,29.84,NW,315,13.0,-999.0,39,-99.99,,,0.00,Acu-Link.com,2013-06-28 19:11:00,
2013-06-28 14:26:00,82.8,53.8,29.84,West,270,24.8,-999.0,37,-99.99,,,0.00,Acu-Link.com,2013-06-28 19:26:00,
2013-06-28 14:42:00,83.3,52.8,29.84,NW,315,14.5,-999.0,35,-99.99,,,0.00,Acu-Link.com,2013-06-28 19:42:00,
2013-06-28 14:57:00,84.6,54.7,29.85,West,270,14.0,-999.0,36,-99.99,,,0.00,Acu-Link.com,2013-06-28 19:57:00,
2013-06-28 15:12:00,82.8,52.3,29.84,WNW,292,26.4,-999.0,35,-99.99,,,0.00,Acu-Link.com,2013-06-28 20:12:00,
2013-06-28 15:27:00,84.9,53.4,29.84,NW,315,19.1,-999.0,34,-99.99,,,0.00,Acu-Link.com,2013-06-28 20:27:00,
2013-06-28 15:42:00,82.8,53.1,29.84,NW,315,18.1,-999.0,36,-99.99,,,0.00,Acu-Link.com,2013-06-28 20:42:00,
2013-06-28 15:57:00,83.5,52.9,29.84,WNW,292,17.6,-999.0,35,-99.99,,,0.00,Acu-Link.com,2013-06-28 20:57:00,
2013-06-28 16:13:00,82.9,52.4,29.85,NNW,337,22.7,-999.0,35,-99.99,,,0.00,Acu-Link.com,2013-06-28 21:13:00,
2013-06-28 16:28:00,83.7,51.5,29.85,WSW,247,15.0,-999.0,33,-99.99,,,0.00,Acu-Link.com,2013-06-28 21:28:00,
2013-06-28 16:43:00,83.3,53.5,29.85,WNW,292,11.4,-999.0,36,-99.99,,,0.01,Acu-Link.com,2013-06-28 21:43:00,
2013-06-28 16:58:00,83.5,53.7,29.85,NW,315,17.1,-999.0,36,-99.99,,,0.01,Acu-Link.com,2013-06-28 21:58:00,
2013-06-28 17:13:00,82.6,54.4,29.85,NW,315,21.2,-999.0,38,-99.99,,,0.01,Acu-Link.com,2013-06-28 22:13:00,
2013-06-28 17:29:00,82.8,54.6,29.86,NNW,337,16.6,-999.0,38,-99.99,,,0.01,Acu-Link.com,2013-06-28 22:29:00,
2013-06-28 17:44:00,82.8,54.6,29.86,NNW,337,13.0,-999.0,38,-99.99,,,0.01,Acu-Link.com,2013-06-28 22:44:00,
2013-06-28 17:59:00,83.1,54.1,29.84,WNW,292,19.7,-999.0,37,-99.99,,,0.01,Acu-Link.com,2013-06-28 22:59:00,
2013-06-28 18:14:00,82.8,53.8,29.85,NNW,337,10.9,-999.0,37,-99.99,,,0.01,Acu-Link.com,2013-06-28 23:14:00,
2013-06-28 18:29:00,82.6,53.7,29.83,East,90,8.9,-999.0,37,-99.99,,,0.01,Acu-Link.com,2013-06-28 23:29:00,
2013-06-28 18:44:00,82.8,53.8,29.83,NNW,337,17.6,-999.0,37,-99.99,,,0.01,Acu-Link.com,2013-06-28 23:44:00,
2013-06-28 18:59:00,82.0,53.9,29.83,WNW,292,16.1,-999.0,38,-99.99,,,0.01,Acu-Link.com,2013-06-28 23:59:00,
2013-06-28 19:15:00,82.4,54.9,29.83,NNW,337,9.9,-999.0,39,-99.99,,,0.01,Acu-Link.com,2013-06-29 00:15:00,
2013-06-28 19:30:00,81.5,55.5,29.83,NNW,337,8.3,-999.0,41,-99.99,,,0.01,Acu-Link.com,2013-06-29 00:30:00,
2013-06-28 19:45:00,81.0,55.7,29.83,North,0,8.9,-999.0,42,-99.99,,,0.01,Acu-Link.com,2013-06-29 00:45:00,
2013-06-28 20:00:00,81.3,55.3,29.82,NNW,337,10.4,-999.0,41,-99.99,,,0.01,Acu-Link.com,2013-06-29 01:00:00,
2013-06-28 20:15:00,80.8,55.5,29.82,East,90,6.3,-999.0,42,-99.99,,,0.01,Acu-Link.com,2013-06-29 01:15:00,
2013-06-28 20:31:00,79.2,54.8,29.83,NNW,337,5.8,-999.0,43,-99.99,,,0.01,Acu-Link.com,2013-06-29 01:31:00,
2013-06-28 20:46:00,78.8,55.0,29.82,NNW,337,9.4,-999.0,44,-99.99,,,0.01,Acu-Link.com,2013-06-29 01:46:00,
2013-06-28 21:01:00,77.7,55.3,29.82,ENE,67,5.3,-999.0,46,-99.99,,,0.01,Acu-Link.com,2013-06-29 02:01:00,
2013-06-28 21:16:00,76.8,55.0,29.82,NW,315,8.9,-999.0,47,-99.99,,,0.01,Acu-Link.com,2013-06-29 02:16:00,
2013-06-28 21:31:00,76.1,55.5,29.81,NNW,337,9.4,-999.0,49,-99.99,,,0.01,Acu-Link.com,2013-06-29 02:31:00,
2013-06-28 21:47:00,75.4,55.5,29.83,West,270,6.8,-999.0,50,-99.99,,,0.01,Acu-Link.com,2013-06-29 02:47:00,
2013-06-28 22:02:00,74.8,55.4,29.83,North,0,6.8,-999.0,51,-99.99,,,0.01,Acu-Link.com,2013-06-29 03:02:00,
2013-06-28 22:17:00,74.5,55.7,29.83,NNW,337,2.7,-999.0,52,-99.99,,,0.01,Acu-Link.com,2013-06-29 03:17:00,
2013-06-28 22:32:00,74.5,55.7,29.83,NW,315,4.7,-999.0,52,-99.99,,,0.01,Acu-Link.com,2013-06-29 03:32:00,
2013-06-28 22:47:00,73.6,55.4,29.83,West,270,4.7,-999.0,53,-99.99,,,0.01,Acu-Link.com,2013-06-29 03:47:00,
2013-06-28 23:02:00,72.9,55.3,29.84,WNW,292,7.3,-999.0,54,-99.99,,,0.01,Acu-Link.com,2013-06-29 04:02:00,
2013-06-28 23:18:00,73.0,54.8,29.82,North,0,7.3,-999.0,53,-99.99,,,0.01,Acu-Link.com,2013-06-29 04:18:00,
2013-06-28 23:33:00,72.7,55.1,29.82,NW,315,7.8,-999.0,54,-99.99,,,0.01,Acu-Link.com,2013-06-29 04:33:00,
2013-06-28 23:48:00,72.3,54.7,29.82,NW,315,7.3,-999.0,54,-99.99,,,0.01,Acu-Link.com,2013-06-29 04:48:00,